Location: Eaton Estates
(41.3089°N, 82.0057°W)
Time: 12:16:28
(UTC+00:00)

DOVE 4 - Pass Details

Date: 06 April 2023
Orbit: 584 x 791 km, 97.8° (Epoch: 02 June)

Event Time Altitude Azimuth Distance (km) Brightness Sun altitude
Rises 04:37:08 0° 8° (N) 3,061 ? -40.8°
Reaches altitude 10° 04:39:28 10° 4° (N) 2,107 ? -40.9°
Enters shadow 04:39:32 10° 4° (N) 2,082 ? -40.9°
